Regional Weather Roundup
Issued by NWS Sterling, VA

Home | Current Version | Previous Version | Graphics & Text | Print | Product List | Glossary On
Versions: 1 2 3 4 5 6 7 8 9 10 11 12 13 14 15 16 17 18 19 20 21 22 23 24 25 26 27 28 29 30 31 32 33 34 35 36 37 38 39 40 41 42 43 44 45 46 47
000
ASUS41 KLWX 280310
RWRLWX

REGIONAL WEATHER ROUNDUP
NATIONAL WEATHER SERVICE BALTIMORE MD/WASHINGTON DC
1000 PM EST SAT DEC 27 2014

Note: "FAIR" indicates few or no clouds below 12,000 feet
with no significant weather and/or obstructions to visibility.
 TC=TEMPERATURE CELSIUS

 * =Non NWS site. Station does not report precipitation (e.g. rain,
    snow, etc.), thunder, or fog.

DCZ001-MDZ009-015-VAZ040>042-051-053>054-280400-
WASHINGTON METRO

CITY           SKY/WX    TMP DP  RH WIND       PRES   REMARKS
WASHINGTON NAT MOCLDY    49  34  56 CALM      30.15F
DULLES         CLOUDY    37  32  82 S3        30.13F
ANDREWS AFB    MOCLDY    44  36  71 S3        30.13F
FT BELVOIR     MOCLDY    38  34  83 CALM      30.15F
QUANTICO       MOCLDY    41  35  79 CALM      30.15F
COLLEGE PARK*  MOCLDY    39  34  81 CALM      30.13F
LEESBURG*      CLEAR     43  34  70 S7        30.12F
MANASSAS*      MOCLDY    36  36 100 CALM      30.14S
GAITHERSBURG*  PTCLDY    43  30  61 SE6       30.15F

$$

MDZ006>007-011-014-280400-
BALTIMORE METRO

CITY           SKY/WX    TMP DP  RH WIND       PRES   REMARKS
BWI AIRPORT    MOCLDY    39  33  79 CALM      30.12F
MD SCIENCE CTR   N/A     45  34  65 MISG      30.13F
MARTIN STATE   PTCLDY    39  37  93 CALM      30.17
ANNAPOLIS      PTCLDY    42  36  79 CALM      30.14F
FORT MEADE*    PTCLDY    34  32  93 CALM      30.16F

$$

MDZ012-015-019>023-280400-
MARYLAND EASTERN SHORE

CITY           SKY/WX    TMP DP  RH WIND       PRES   REMARKS
OCEAN CITY     PTCLDY    47  42  83 SW8       30.18F
SALISBURY      MOCLDY    46  38  73 S5        30.17F
BAY BRIDGE AP*   N/A     41  37  87 CALM      30.15F
CAMBRIDGE*     PTCLDY    46  41  81 S6        30.15F
EASTON*        PTCLDY    48  42  79 SW8       30.18

$$

MDZ017>025-280400-
SOUTHERN MARYLAND

CITY           SKY/WX    TMP DP  RH WIND       PRES   REMARKS
PATUXENT RIVER PTCLDY    50  37  61 S8        30.16F
ST INIGOES     PTCLDY    47  37  68 S5        30.16F
LEONARDTOWN*   PTCLDY    48  36  61 S6        30.17F

$$

MDZ003>005-280400-
NORTH CENTRAL MARYLAND

CITY           SKY/WX    TMP DP  RH WIND       PRES   REMARKS
FREDERICK*     PTCLDY    37  32  81 CALM      30.13F
HAGERSTOWN APT MOCLDY    51  28  41 SW3       30.08F
WESTMINSTER*   PTCLDY    46  30  53 S6        30.09F

$$

MDZ501>502-280400-
WESTERN MARYLAND

CITY           SKY/WX    TMP DP  RH WIND       PRES   REMARKS
OAKLAND*       CLOUDY    50  -8   9 SW10      30.08S
CUMBERLAND*    MOCLDY    43  32  65 CALM      30.11F

$$

VAZ025>031-280400-
SHENANDOAH VALLEY

CITY           SKY/WX    TMP DP  RH WIND       PRES   REMARKS
WINCHESTER*    PTCLDY    45  27  49 S5        30.09F
FRONT ROYAL*   FAIR      45  30  57 S3        30.08F
LURAY*         FAIR      39  34  81 CALM      30.10F
NEW MARKET*    FAIR      44  29  55 W5        30.10F
STAUNTON*      PTCLDY    45  26  46 CALM      30.13F
WAYNESBORO*    MOCLDY    43  26  51 CALM      30.12F

$$

WVZ021-048>050-054>055-280400-
EASTERN WEST VIRGINIA PANHANDLE

CITY           SKY/WX    TMP DP  RH WIND       PRES   REMARKS
MARTINSBURG    MOCLDY    40  28  62 CALM      30.09F
PETERSBURG*    PTCLDY    39  33  81 CALM      30.09F

$$

VAZ036>039-050-280400-
CENTRAL FOOTHILLS

CITY           SKY/WX    TMP DP  RH WIND       PRES   REMARKS
CHARLOTTESVILL MOCLDY    44  34  67 CALM      30.13F
CULPEPER*      MOCLDY    37  34  87 CALM      30.13F
ORANGE*        MOCLDY    41  36  81 S3        30.15F
GORDONSVILLE*  FAIR      40  35  81 CALM      30.13F
WARRENTON*     FAIR      38  38  99 CALM      30.12F

$$

VAZ055>057-280400-
NORTH AND CENTRAL PIEDMONT

CITY           SKY/WX    TMP DP  RH WIND       PRES   REMARKS
FREDERICKSBRG* CLOUDY    41  38  87 CALM      30.14F
STAFFORD*      CLOUDY    39  32  76 CALM      30.18F

$$

NCZ024-NYZ072-PAZ021-071-VAZ022-071-280400-
OTHER REGIONAL OBSERVATIONS

CITY           SKY/WX    TMP DP  RH WIND       PRES   REMARKS
NEW YORK CITY  CLEAR     52  31  44 W9G18     30.15F
PHILADELPHIA   MOCLDY    42  34  73 SW3       30.15F
PITTSBURGH     LGT RAIN  53  30  41 SW5       30.01F
ROANOKE        CLOUDY    51  36  56 NW3       30.17F
RICHMOND       MOCLDY    51  38  60 S6        30.17F
RALEIGH        MOCLDY    50  37  61 CALM      30.22S

$$

ANZ530>537-280400-
MARINE OBSERVATIONS

STATION/POSITION TIME  TEMP    WIND        PRES
                       AIR SEA DIR/SP/G
                 (UTC) (F)     (DEG/KT/KT) (MB)
THOMAS PT LIGHT  0300   44 43  180/ 11/ 12 1021.8F
BALT KEY BRIDGE  0300   44      10/  2/  2 1020.7F
COVE POINT       0300   45     180/ 10/ 10 1021.1S
LEWISETTA        0300   48 45  220/  6/  6 1021.5S
SOLOMONS ISLAND  0300      44                N/A
PINEY POINT      0300          130/  4/  4   N/A

$$




USA.gov is the U.S. government's official web portal to all federal, state and local government web resources and services.